Hot Springs, VA

9:46 PM EDT on July 24, 2017 (GMT -0400)
Ingalls

Weather History for KHSP - January, 2014

Change the Weather History Date:

Sunday, January 5, 2014

  Actual Average Record
Temperature  
Mean Temperature 38 °F -  
Max Temperature 42 °F 34 °F 59 °F (2007)
Min Temperature 33 °F 21 °F 1 °F (1999)
Degree Days  
Heating Degree Days 28    
Moisture  
Dew Point 39 °F    
Average Humidity 99    
Maximum Humidity 100    
Minimum Humidity 81    
Precipitation  
Precipitation 0.03 in - - ()
Sea Level Pressure  
Sea Level Pressure 29.99 in    
Wind  
Wind Speed 17 mph (SSW)    
Max Wind Speed 26 mph    
Max Gust Speed 33 mph    
Visibility 3 miles    
Events Fog , Rain , Snow    
Averages and records for this station are not official NWS values.
T = Trace of Precipitation, MM = Missing Value Source: NWS Daily Summary

Daily Weather History Graph

Daily Weather History Graph

Search for Another Location

Airport or City:

Trip Planner

Search our weather history database for the weather conditions in past years. The results will help you decide how hot, cold, wet, or windy it might be!

Date:

Astronomy

Jan. 05, 2014 Rise Set
Actual Time 7:35 AM EST 5:14 PM EST
Civil Twilight 7:06 AM EST 5:43 PM EST
Nautical Twilight 6:33 AM EST 6:16 PM EST
Astronomical Twilight 6:01 AM EST 6:48 PM EST
Moon 10:21 AM EST (1/5) 10:34 PM EST (1/5)
Length of Visible Light 10h 37m
Length of Day
9h 38m
Waxing Crescent, 24% of the Moon is Illuminated
Jan 5
Waxing Crescent
Jan 7
First Quarter
Jan 15
Full
Jan 24
Last Quarter
Jan 30
New

Hourly Weather History & Observations

Time (EST) Temp. Windchill Dew Point Humidity Pressure Visibility Wind Dir Wind Speed Gust Speed Precip Events Conditions
12:15 AM 33.8 °F 24.3 °F 28.4 °F 81% 30.17 in 10.0 mi SW 13.8 mph 19.6 mph N/A   Clear
12:35 AM 35.6 °F 24.2 °F 30.2 °F 81% 30.16 in 10.0 mi SW 21.9 mph 29.9 mph N/A   Scattered Clouds
12:55 AM 35.6 °F 24.5 °F 33.8 °F 93% 30.16 in 10.0 mi SW 20.7 mph 28.8 mph N/A   Overcast
1:15 AM 37.4 °F 25.6 °F 35.6 °F 93% 30.15 in 10.0 mi SW 26.5 mph 33.4 mph N/A   Overcast
1:55 AM 37.4 °F 26.6 °F 35.6 °F 93% 30.16 in 10.0 mi SW 21.9 mph 31.1 mph N/A   Overcast
2:15 AM 37.4 °F 25.9 °F 37.4 °F 100% 30.17 in 10.0 mi SW 25.3 mph 31.1 mph N/A   Overcast
2:35 AM 37.4 °F 25.9 °F 37.4 °F 100% 30.17 in 10.0 mi SW 25.3 mph 33.4 mph N/A   Overcast
2:36 AM 37.4 °F 25.9 °F 37.4 °F 100% 30.17 in 10.0 mi SW 25.3 mph 33.4 mph N/A   Overcast
3:15 AM 37.4 °F 27.2 °F 37.4 °F 100% 30.16 in 10.0 mi SW 19.6 mph 27.6 mph N/A   Mostly Cloudy
3:35 AM 39.2 °F 29.8 °F 37.4 °F 93% 30.15 in 10.0 mi SW 18.4 mph 29.9 mph N/A   Overcast
3:55 AM 37.4 °F 27.2 °F 37.4 °F 100% 30.15 in 10.0 mi WSW 19.6 mph 27.6 mph N/A   Overcast
4:15 AM 37.4 °F 27.5 °F 37.4 °F 100% 30.15 in 10.0 mi SW 18.4 mph 25.3 mph N/A   Mostly Cloudy
4:35 AM 39.2 °F 29.0 °F 39.2 °F 100% 30.14 in 10.0 mi SW 21.9 mph 31.1 mph N/A   Overcast
4:56 AM 39.2 °F 29.6 °F 39.2 °F 100% 30.15 in 10.0 mi SW 19.6 mph 28.8 mph N/A   Overcast
5:15 AM 39.2 °F 29.8 °F 39.2 °F 100% 30.14 in 7.0 mi SW 18.4 mph 27.6 mph N/A   Overcast
5:35 AM 39.2 °F 30.8 °F 39.2 °F 100% 30.15 in 7.0 mi SW 15.0 mph 25.3 mph N/A   Overcast
5:55 AM 39.2 °F 30.5 °F 39.2 °F 100% 30.14 in 3.0 mi SW 16.1 mph 21.9 mph N/A   Overcast
6:15 AM 39.2 °F 30.8 °F 39.2 °F 100% 30.14 in 0.2 mi SW 15.0 mph 20.7 mph N/A   Unknown
6:35 AM 39.2 °F 30.2 °F 39.2 °F 100% 30.14 in 0.2 mi SW 17.3 mph 20.7 mph N/A   Unknown
6:55 AM 39.2 °F 31.2 °F 39.2 °F 100% 30.14 in 0.2 mi SW 13.8 mph - N/A   Unknown
7:15 AM 39.2 °F 30.8 °F 39.2 °F 100% 30.14 in 0.2 mi SW 15.0 mph - N/A Fog Fog
7:35 AM 41.0 °F 33.5 °F 41.0 °F 100% 30.14 in 0.2 mi SW 13.8 mph 18.4 mph N/A Rain Light Rain
7:55 AM 42.8 °F 35.4 °F 42.8 °F 100% 30.15 in 0.2 mi SW 15.0 mph 18.4 mph N/A   Unknown
8:15 AM 42.8 °F 35.8 °F 42.8 °F 100% 30.14 in 0.2 mi SW 13.8 mph 18.4 mph N/A   Unknown
8:35 AM 42.8 °F 34.5 °F 42.8 °F 100% 30.14 in 7.0 mi SW 18.4 mph 24.2 mph N/A   Overcast
8:55 AM 42.8 °F 35.8 °F 42.8 °F 100% 30.13 in 7.0 mi SW 13.8 mph 20.7 mph N/A   Overcast
9:15 AM 42.8 °F 36.2 °F 42.8 °F 100% 30.13 in 1.0 mi SSW 12.7 mph - N/A   Overcast
9:35 AM 42.8 °F 37.5 °F 42.8 °F 100% 30.12 in 0.2 mi SSW 9.2 mph - N/A Rain Light Rain
9:55 AM 42.8 °F 35.8 °F 42.8 °F 100% 30.12 in 0.2 mi SSW 13.8 mph 18.4 mph N/A Fog Fog
10:15 AM 42.8 °F 36.2 °F 42.8 °F 100% 30.12 in 0.2 mi South 12.7 mph 17.3 mph N/A Fog Fog
10:35 AM 41.0 °F 34.3 °F 41.0 °F 100% 30.10 in 0.2 mi South 11.5 mph - N/A   Unknown
10:55 AM 41.0 °F 34.3 °F 41.0 °F 100% 30.09 in 0.2 mi South 11.5 mph 17.3 mph N/A   Unknown
11:15 AM 41.0 °F 33.5 °F 41.0 °F 100% 30.08 in 0.2 mi South 13.8 mph - N/A   Unknown
11:35 AM 42.8 °F 36.6 °F 42.8 °F 100% 30.06 in 0.2 mi South 11.5 mph 19.6 mph N/A   Unknown
11:55 AM 42.8 °F 35.4 °F 42.8 °F 100% 30.05 in 0.2 mi South 15.0 mph 21.9 mph N/A   Unknown
12:15 PM 42.8 °F 36.2 °F 42.8 °F 100% 30.03 in 0.2 mi South 12.7 mph 16.1 mph N/A   Unknown
12:35 PM 42.8 °F 36.6 °F 42.8 °F 100% 30.00 in 0.2 mi South 11.5 mph - N/A   Unknown
12:55 PM 41.0 °F 33.1 °F 41.0 °F 100% 30.00 in 0.2 mi South 15.0 mph 20.7 mph N/A   Unknown
1:15 PM 41.0 °F 33.9 °F 41.0 °F 100% 29.99 in 0.2 mi South 12.7 mph 21.9 mph N/A   Unknown
1:35 PM 41.0 °F 35.2 °F 41.0 °F 100% 29.97 in 0.2 mi South 9.2 mph 19.6 mph N/A   Unknown
1:55 PM 39.2 °F 31.2 °F 39.2 °F 100% 29.97 in 0.2 mi South 13.8 mph 18.4 mph N/A   Unknown
2:15 PM 39.2 °F 32.5 °F 39.2 °F 100% 29.96 in 0.2 mi South 10.4 mph 18.4 mph N/A   Unknown
2:35 PM 39.2 °F 31.2 °F 39.2 °F 100% 29.95 in 0.2 mi South 13.8 mph 21.9 mph 0.01 in   Heavy Drizzle
3:15 PM 39.2 °F 33.0 °F 39.2 °F 100% 29.93 in 0.2 mi South 9.2 mph 16.1 mph 0.01 in   Unknown
3:35 PM 39.2 °F 32.5 °F 39.2 °F 100% 29.93 in 0.2 mi South 10.4 mph 19.6 mph 0.01 in   Unknown
3:55 PM 39.2 °F 31.6 °F 39.2 °F 100% 29.92 in 0.2 mi South 12.7 mph 20.7 mph N/A Rain Light Rain
4:16 PM 39.2 °F 31.2 °F 39.2 °F 100% 29.90 in 0.2 mi SSE 13.8 mph 17.3 mph N/A   Unknown
4:35 PM 39.2 °F 33.0 °F 39.2 °F 100% 29.90 in 0.2 mi SSE 9.2 mph 18.4 mph N/A   Unknown
4:55 PM 37.4 °F 29.8 °F 37.4 °F 100% 29.87 in 0.2 mi SE 11.5 mph 18.4 mph N/A Snow Heavy Snow
5:15 PM 37.4 °F 29.8 °F 37.4 °F 100% 29.87 in 0.2 mi SSE 11.5 mph 19.6 mph N/A Rain Light Rain
5:35 PM 37.4 °F 29.8 °F 37.4 °F 100% 29.88 in 0.2 mi South 11.5 mph 18.4 mph N/A Rain Heavy Rain
5:55 PM 39.2 °F 32.5 °F 39.2 °F 100% 29.86 in 0.2 mi South 10.4 mph 23.0 mph N/A Rain Heavy Rain
6:15 PM 37.4 °F 28.2 °F 37.4 °F 100% 29.84 in 0.2 mi SSE 16.1 mph 21.9 mph N/A Snow Heavy Snow
6:35 PM 37.4 °F 29.8 °F 37.4 °F 100% 29.84 in 0.2 mi SSE 11.5 mph 19.6 mph N/A Snow Heavy Snow
7:15 PM 39.2 °F 32.0 °F 39.2 °F 100% 29.82 in 0.2 mi SSE 11.5 mph 18.4 mph 0.01 in   Unknown
7:35 PM 39.2 °F 31.6 °F 39.2 °F 100% 29.82 in 0.2 mi SSE 12.7 mph 20.7 mph 0.01 in   Unknown
7:55 PM 39.2 °F 30.5 °F 39.2 °F 100% 29.81 in 0.2 mi South 16.1 mph 27.6 mph N/A   Unknown
8:15 PM 39.2 °F 30.5 °F 39.2 °F 100% 29.80 in 0.2 mi South 16.1 mph 25.3 mph N/A   Unknown
8:35 PM 39.2 °F 30.5 °F 39.2 °F 100% 29.78 in 0.2 mi South 16.1 mph 23.0 mph N/A   Unknown
8:55 PM 39.2 °F 31.2 °F 39.2 °F 100% 29.76 in 0.2 mi South 13.8 mph 24.2 mph N/A   Unknown
9:15 PM 37.4 °F 28.9 °F 37.4 °F 100% 29.75 in 0.2 mi South 13.8 mph 26.5 mph N/A Snow Heavy Snow
9:35 PM 37.4 °F 28.2 °F 37.4 °F 100% 29.74 in 0.2 mi SSE 16.1 mph 24.2 mph N/A Snow Heavy Snow
9:55 PM 37.4 °F 28.9 °F 37.4 °F 100% 29.73 in 0.5 mi South 13.8 mph 21.9 mph N/A Snow Light Snow
10:15 PM 39.2 °F 30.5 °F 39.2 °F 100% 29.73 in 10.0 mi SSW 16.1 mph 25.3 mph N/A   Scattered Clouds
10:35 PM 39.2 °F 30.5 °F 39.2 °F 100% 29.72 in 10.0 mi South 16.1 mph 23.0 mph N/A   Clear
10:55 PM 39.2 °F 30.5 °F 39.2 °F 100% 29.71 in 0.8 mi SSW 16.1 mph 25.3 mph N/A   Overcast
11:15 PM 39.2 °F 29.8 °F 39.2 °F 100% 29.69 in 0.2 mi South 18.4 mph 28.8 mph N/A Fog Fog
11:35 PM 39.2 °F 29.8 °F 39.2 °F 100% 29.67 in 0.2 mi South 18.4 mph 25.3 mph N/A   Unknown
11:55 PM 39.2 °F 31.6 °F 39.2 °F 100% 29.65 in 0.2 mi South 12.7 mph 25.3 mph N/A   Unknown